STARLINK-36611, 67830

Orbit data source: Space-Track

STARLINK-36611, 67830 is a payload satellite owned by SpaceX/Seattle (US) in LEO that was launched on Mon, 16 Feb 2026 UTC via an FALCON 9 launch vehicle from the Air Force Eastern Test Range (AFETR). Payload-class satellites include a variety of spacecraft equipped with specific instruments for various scientific and technological missions. These include communications satellites like Starlink; space stations such as the ISS; scientific satellites like the Hubble; Earth observation satellites from companies like Planet Labs, Umbra, and HawkEye 360; GPS; miniature CubeSats for education and research; and military/defense satellites.

Loading next visibility...
Identifier
67830, 2026-033K
Orbit
LEO
Country
Flag of USUS
Related business
Manufacturer
SpaceX/Seattle
Mission
Operational Commercial Communications
Bus & Motor
STARLINK V2MO, Unknown motor
Mass
575 kg wet, ~530 kg dry
Launch date (UTC)
2026-02-16 (4 months ago)
Launch vehicle
FALCON 9
Launch site
Air Force Eastern Test Range (AFETR)
Object type
Payload
Rocket body
Debris
Shape & HBR
Box + 2 Pan, 17.7 m
Radar Cross Section
36.964 m², Large (>1 m²)

Expand to show TLE details & history
Last TLE update: 11 hours ago

TLE from 11 hours ago
0 STARLINK-36611
1 67830U 26033K   26171.37924242  .00013161  00000-0  48706-3 0  9998
2 67830  43.0042  47.5889 0001618 254.9961 105.0711 15.27570421 20373
Epoch: 2026-06-20T09:06Z
TLE epoch observation values (Epoch: 2026-06-20T09:06:06.545Z)
Latitude
-0.00005°
Longitude
2.46687°
Altitude
483.142 km
Speed
7.625 km/s
True Right ascension
03h 10m 21s
True Declination
0° 00' 00"
Sunlit
Object was in daylight at epoch
Visualization orbit readout
Latitude
Unknown
Longitude
Unknown
Altitude
Unknown
Speed
Unknown
Apparent Right ascension
Unknown
Apparent Declination
Unknown
Sunlit
N/A
Visualization observer readout
Local Sidereal Time
07:23:58
Azimuth
Unknown
Elevation
Unknown
Doppler factor
Unknown
Orbital elements
Apogee altitude
486.133 km
Perigee altitude
483.912 km
Semi-major axis
6,863.159 km
Eccentricity
0.00016
Inclination
43.0042°
RAAN
47.5889°
Arg. of periapsis
254.9961°
True anomaly
105.089°
Mean anomaly
105.0711°
Eccentric anomaly
105.08005°
Mean motion
3.81731 °/min
Orbital period
94.31 mins
BSTAR
0.00048706
Loading maneuver chart data...
Computing Atmospheric mass density...
Loading historical data...
Loading historical data...
Loading historical data...
Loading historical data...
Loading historical data...
Loading historical data...
Loading historical data...

Documentation

Showing up to 5 results
|